CAPE
0 0 0 0 0 0 0 0 0 0 0 0 0 0 0 0 0 0 0 0 0 0 0 0 0 0 0 0 0 0 0 0 0 0 0 0 0 0 0 0 0 0 0 0
0 0 0 0 0 0 0 0 0 0 0 0 0 0 0 0 0 0 0 0 0 0 0 0 0 0 0 0 0 0 0 0 0 0 0 0 0 0 0 0 0 0 0 0
0 0 0 0 0 0 0 0 0 0 0 0 0 0 0 0 0 0 0 0 0 0 0 0 0 0 0 0 0 0 0 0 0 0 0 0 0 0 0 0 0 0 0 0
0 0 0 0 0 0 0 0 0 0 0 0 0 0 0 0 0 0 0 0 0 0 0 0 0 0 0 0 0 0 0 0 0 0 0 0 0 0 0 0 0 0 0 0
0 0 0 0 0 0 0 0 0 0 0 0 0 0 0 0 0 0 0 0 0 0 0 0 0 0 0 0 0 0 0 0 0 0 0 0 0 0 0 0 0 0 0 0
0 0 0 0 0 0 0 0 0 0 0 0 0 0 0 0 0 0 0 0 0 0 0 0 0 0 0 0 0 0 0 0 0 0 0 0 0 0 0 0 0 0 0 0
0 0 0 0 0 0 0 0 0 0 0 0 0 0 0 0 0 0 0 0 0 0 0 0 0 0 0 0 0 0 0 0 0 0 0 0 0 0 0 0 0 0 0 0
0 0 0 0 0 0 0 0 0 0 0 0 0 0 0 0 0 0 0 0 0 0 0 0 0 0 0 0 0 0 0 0 0 0 0 0 0 0 0 0 0 0 0 0
0 0 0 0 0 0 0 0 0 0 0 0 0 0 0 0 0 0 0 0 0 0 0 0 0 0 0 0 0 0 0 0 0 0 0 0 0 0 0 0 0 0 0 0
0 0 0 0 0 0 0 0 0 0 0 0 0 0 0 0 0 0 0 0 0 0 0 0 0 0 0 0 0 0 0 0 0 0 0 0 0 0 0 0 0 0 0 0
0 0 0 0 0 0 0 0 0 0 0 0 0 0 0 0 0 0 0 0 0 0 0 0 0 0 0 0 0 0 0 0 0 0 0 0 0 0 0 0 0 0 0 0
0 0 0 0 0 0 0 0 0 0 0 0 0 0 0 0 0 0 0 0 0 0 0 0 0 0 0 0 0 0 0 0 0 0 0 0 0 0 0 0 0 0 0 0
0 0 0 0 0 0 0 0 0 0 0 0 0 0 0 0 0 1 0 0 0 0 0 0 0 0 0 0 0 0 0 0 0 0 0 0 0 0 0 0 0 0 0 0
0 0 0 0 0 0 0 0 0 0 0 0 0 0 0 0 0 0 0 0 0 0 0 0 0 0 0 0 0 0 0 0 0 0 0 0 0 0 0 0 0 0 0 0
0 0 0 0 0 0 0 0 0 0 0 0 0 0 0 0 0 0 0 0 0 0 0 0 0 0 0 0 0 0 0 0 0 0 0 0 0 0 0 0 0 0 0 0
0 0 0 0 0 0 0 0 0 0 0 0 0 0 0 0 0 0 0 0 0 0 0 0 0 0 0 0 0 0 0 0 0 0 0 0 0 0 0 0 0 0 0 0
0 0 0 0 0 0 0 0 0 0 0 0 0 0 0 0 0 0 0 0 0 0 0 0 0 0 0 0 0 0 0 0 0 0 0 0 0 0 0 0 0 0 0 0
0 0 0 0 0 0 0 0 0 0 0 0 0 0 0 0 0 0 0 0 0 0 0 0 0 0 0 0 0 0 0 0 0 0 0 0 0 0 0 0 0 0 0 0
0 0 0 0 0 0 0 0 0 0 0 0 0 0 0 0 0 0 0 0 0 0 0 0 0 0 0 0 0 0 0 0 0 0 0 0 0 0 0 0 0 0 0 0
0 0 0 0 0 0 0 0 0 0 0 0 0 0 0 0 0 0 0 0 0 0 0 0 0 0 0 0 0 0 0 0 0 0 0 0 0 0 0 0 0 0 0 0
0 0 0 0 0 0 0 0 0 0 0 0 0 0 0 0 0 0 0 0 0 0 0 0 0 0 0 0 0 0 0 0 0 0 0 0 0 0 0 0 0 0 0 0
0 0 0 0 0 0 0 0 0 0 0 0 0 0 0 0 0 0 0 0 0 0 0 0 0 0 0 0 0 0 0 0 0 0 0 0 0 0 0 0 0 0 0 0
0 0 0 0 0 0 0 0 0 0 0 0 0 0 0 0 0 0 0 0 0 0 0 0 0 1 0 0 0 0 0 0 0 0 0 0 0 0 0 0 0 0 0 0
0 0 0 0 0 0 0 0 0 0 0 0 0 0 0 0 0 0 0 0 0 0 0 2 2 1 0 0 0 0 0 0 0 0 0 0 0 0 0 0 0 0 0 0
0 0 0 0 0 0 0 0 0 0 0 0 0 0 0 0 0 0 0 0 0 0 0 0 0 0 0 0 0 0 0 0 0 0 0 0 0 0 0 0 0 0 0 0
0 0 0 0 0 0 0 0 0 0 0 0 0 0 0 0 0 0 0 0 0 0 0 0 0 0 0 0 0 0 0 0 0 0 0 0 0 0 0 0 0 0 0 0
0 0 0 0 0 0 0 0 0 0 0 0 0 0 0 0 0 0 0 0 0 0 0 0 0 0 0 0 0 0 0 0 0 0 0 0 0 0 0 0 0 0 0 0
CIN
0 0 0 0 0 0 0 0 0 0 0 0 0 0 0 0 0 0 0 0 0 0 0 0 0 0 0 0 0 0 0 0 0 0 0 0 0 0 0 0 0 0 0 0
0 0 0 0 0 0 0 0 0 0 0 0 0 0 0 0 0 0 0 0 0 0 0 0 0 0 0 0 0 0 0 0 0 0 0 0 0 0 0 0 0 0 0 0
0 0 0 0 0 0 0 0 0 0 0 0 0 0 0 0 0 0 0 0 0 0 0 0 0 0 0 0 0 0 0 0 0 0 0 0 0 0 0 0 0 0 0 0
0 0 0 0 0 0 0 0 0 0 0 0 0 0 0 0 0 0 0 0 0 0 0 0 0 0 0 0 0 0 0 0 0 0 0 0 0 0 0 0 0 0 0 0
0 0 0 0 0 0 0 0 0 0 0 0 0 0 0 0 0 0 0 0 0 0 0 0 0 0 0 0 0 0 0 0 0 0 0 0 0 0 0 0 0 0 0 0
0 0 0 0 0 0 0 0 0 0 0 0 0 0 0 0 0 0 0 0 0 0 0 0 0 0 0 0 0 0 0 0 0 0 0 0 0 0 0 0 0 0 0 0
0 0 0 0 0 0 0 0 0 0 0 0 0 0 0 0 0 0 0 0 0 0 0 0 0 0 0 0 0 0 0 0 0 0 0 0 0 0 0 0 0 0 0 0
0 0 0 0 0 0 0 0 0 0 0 0 0 0 0 0 0 0 0 0 0 0 0 0 0 0 0 0 0 0 0 0 0 0 0 0 0 0 0 0 0 0 0 0
0 0 0 0 0 0 0 0 0 0 0 0 0 0 0 0 0 0 0 0 0 0 0 0 0 0 0 0 0 0 0 0 0 0 0 0 0 0 0 0 0 0 0 0
0 0 0 0 0 0 0 0 0 0 0 0 0 0 0 0 0 0 0 0 0 0 0 0 0 0 0 0 0 0 0 0 0 0 0 0 0 0 0 0 0 0 0 0
0 0 0 0 0 0 0 0 0 0 0 0 0 0 0 0 0 0 0 0 0 0 0 0 0 0 0 0 0 0 0 0 0 0 0 0 0 0 0 0 0 0 0 0
0 0 0 0 0 0 0 0 0 0 0 0 0 0 0 0 0 0 0 0 0 0 0 0 0 0 0 0 0 0 0 0 0 0 0 0 0 0 0 0 0 0 0 0
0 0 0 0 0 0 0 0 0 0 0 0 0 0 0 0 0 -1 0 0 0 0 0 0 0 0 0 0 0 0 0 0 0 0 0 0 0 0 0 0 0 0 0 0
0 0 0 0 0 0 0 0 0 0 0 0 0 0 0 0 0 0 0 0 0 0 0 0 0 0 0 0 0 0 0 0 0 0 0 0 0 0 0 0 0 0 0 0
0 0 0 0 0 0 0 0 0 0 0 0 0 0 0 0 0 0 0 0 0 0 0 0 0 0 0 0 0 0 0 0 0 0 0 0 0 0 0 0 0 0 0 0
0 0 0 0 0 0 0 0 0 0 0 0 0 0 0 0 0 0 0 0 0 0 0 0 0 0 0 0 0 0 0 0 0 0 0 0 0 0 0 0 0 0 0 0
0 0 0 0 0 0 0 0 0 0 0 0 0 0 0 0 0 0 0 0 0 0 0 0 0 0 0 0 0 0 0 0 0 0 0 0 0 0 0 0 0 0 0 0
0 0 0 0 0 0 0 0 0 0 0 0 0 0 0 0 0 0 0 0 0 0 0 0 0 0 0 0 0 0 0 0 0 0 0 0 0 0 0 0 0 0 0 0
0 0 0 0 0 0 0 0 0 0 0 0 0 0 0 0 0 0 0 0 0 0 0 0 0 0 0 0 0 0 0 0 0 0 0 0 0 0 0 0 0 0 0 0
0 0 0 0 0 0 0 0 0 0 0 0 0 0 0 0 0 0 0 0 0 0 0 0 0 0 0 0 0 0 0 0 0 0 0 0 0 0 0 0 0 0 0 0
0 0 0 0 0 0 0 0 0 0 0 0 0 0 0 0 0 0 0 0 0 0 0 0 0 0 0 0 0 0 0 0 0 0 0 0 0 0 0 0 0 0 0 0
0 0 0 0 0 0 0 0 0 0 0 0 0 0 0 0 0 0 0 0 0 -1 0 0 0 0 0 0 0 0 0 0 0 0 0 0 0 0 0 0 0 0 0 0
0 0 0 0 0 0 0 0 0 0 0 0 0 0 0 0 0 0 0 0 0 0 0 0 0 0 0 0 0 0 0 0 0 0 0 0 0 0 0 0 0 0 0 0
0 0 0 0 0 0 0 0 0 0 0 0 0 0 0 0 0 0 0 0 -1 0 0 -2 -1 0 0 0 0 0 0 0 0 0 0 0 0 0 0 0 0 0 0 0
0 0 0 0 0 0 0 0 0 0 0 0 0 0 0 0 0 0 0 0 0 -1 0 0 0 0 0 0 0 0 0 0 0 0 0 0 0 0 0 0 0 0 0 0
0 0 0 0 0 0 0 0 0 0 0 0 0 0 0 0 0 0 0 0 0 0 0 0 0 0 0 0 0 0 0 0 0 0 0 0 0 0 0 0 0 0 0 0
0 0 0 0 0 0 0 0 0 0 0 0 0 0 0 0 0 0 0 0 0 0 0 0 0 0 0 0 0 0 0 0 0 0 0 0 0 0 0 0 0 0 0 0
Wind_Speed
14 13 16 20 23 25 26 27 30 29 28 29 31 33 33 33 33 33 31 27 26 27 27 28 29 30 30 30 28 25 25 25 26 26 26 27 28 29 30 31 32 33 34 36
23 19 13 19 23 23 25 27 26 26 29 28 31 32 33 34 33 32 27 27 28 29 30 31 32 33 33 32 28 24 25 26 25 25 25 26 28 29 30 31 32 33 34 36
22 19 13 18 25 26 27 26 27 29 28 32 35 35 36 36 32 30 30 31 33 34 34 34 34 33 32 30 26 24 24 25 24 25 26 27 28 29 31 31 32 33 35 35
20 19 20 13 13 17 27 23 21 25 31 34 37 38 39 32 30 35 37 38 39 39 39 38 35 34 32 29 26 23 23 24 24 24 26 27 28 29 30 30 31 33 34 36
22 21 17 14 15 16 12 21 20 28 35 37 38 40 37 27 35 40 41 41 42 41 41 40 38 35 33 31 29 26 25 24 23 23 24 26 28 28 28 29 30 32 34 36
20 20 19 15 14 14 12 10 12 33 38 41 42 46 43 38 41 43 42 41 43 42 42 41 40 36 34 34 32 31 29 26 22 21 23 24 26 27 27 27 30 32 34 35
20 18 13 14 16 18 18 16 9 12 22 38 43 43 49 45 43 42 42 43 43 43 43 42 40 39 39 37 35 34 31 28 24 22 21 23 24 25 25 27 30 32 33 35
20 19 16 14 18 18 14 14 12 12 14 23 25 35 40 44 42 42 44 43 44 45 45 42 40 40 41 39 36 33 30 28 26 24 22 21 22 24 25 28 30 32 33 34
14 15 14 14 14 16 20 22 24 17 15 23 27 26 19 13 35 42 43 42 44 44 45 42 39 38 40 38 33 32 29 28 26 23 23 22 22 23 25 27 29 31 32 33
19 16 13 15 17 19 24 24 28 27 30 29 34 41 37 34 38 40 41 42 43 42 42 41 38 35 34 33 31 30 29 27 24 23 23 23 23 23 24 25 28 30 31 32
16 16 17 17 21 24 26 29 31 29 30 32 39 40 37 38 25 32 37 41 39 37 38 38 36 35 34 32 30 29 28 25 23 23 23 22 23 23 23 24 25 28 29 30
22 21 22 22 25 27 28 28 31 33 32 34 33 39 35 32 34 34 40 36 37 35 36 36 35 36 34 32 29 29 27 25 23 22 22 22 22 22 21 22 22 25 26 27
20 21 22 22 26 28 29 30 33 33 32 33 37 36 37 36 34 38 37 37 35 36 35 35 35 35 34 32 30 28 26 24 22 21 22 21 21 21 22 21 21 23 24 25
20 26 28 27 30 28 29 30 34 34 34 33 34 36 35 37 36 36 36 35 35 34 34 33 32 33 31 30 27 25 22 21 21 21 21 20 19 19 19 19 21 22 23 23
23 28 26 26 27 30 31 35 37 38 38 38 38 36 37 38 38 36 34 33 33 32 31 31 30 28 24 21 20 21 21 20 19 19 19 18 17 17 17 17 18 20 21 22
28 30 27 29 29 30 31 34 34 36 38 39 39 38 38 37 36 35 33 32 32 31 30 29 28 24 21 14 14 17 18 18 16 16 17 16 16 16 16 16 17 18 20 20
35 36 31 30 30 30 32 32 34 35 37 38 39 39 38 36 35 34 33 32 30 29 28 27 25 22 18 14 14 15 14 14 12 14 14 14 15 17 16 16 17 17 18 19
28 26 24 24 27 30 32 32 33 34 36 37 37 37 37 37 36 35 33 31 28 25 24 24 23 21 18 15 12 12 13 13 11 13 12 13 15 14 15 16 16 17 17 17
27 26 25 25 26 28 30 31 32 33 34 35 36 37 36 35 35 34 32 29 27 26 25 23 20 19 17 16 12 10 10 10 10 11 12 12 13 14 15 16 16 16 15 15
27 25 25 25 27 28 29 30 31 32 32 33 34 35 36 36 35 33 31 28 27 26 24 22 21 19 18 16 14 14 13 12 11 11 12 13 13 14 15 15 16 16 14 14
25 25 25 26 28 28 28 29 30 32 31 32 32 34 35 34 34 33 31 29 29 25 24 21 21 20 18 18 16 16 15 13 13 13 13 12 13 13 14 15 16 16 15 15
25 26 26 27 28 28 29 29 29 29 29 30 31 32 34 35 34 33 28 30 30 26 23 21 20 20 17 17 17 16 16 15 14 13 12 12 13 14 15 15 16 16 15 16
25 25 26 27 28 27 28 28 29 28 29 29 29 31 32 32 31 31 30 30 28 26 21 18 21 14 16 17 17 17 16 15 14 14 13 14 14 14 14 15 15 15 17 17
25 25 26 27 26 28 30 30 29 27 28 26 27 28 31 33 32 27 29 29 27 24 22 18 17 17 18 19 19 18 17 16 15 14 14 13 14 14 14 14 14 16 17 18
24 24 24 27 27 28 28 28 27 28 28 27 27 26 29 30 28 29 30 29 28 25 24 24 22 22 22 21 20 19 18 17 16 15 15 14 14 13 13 14 15 17 18 19
24 25 24 25 24 25 26 28 28 28 28 28 26 26 30 30 28 28 29 29 28 27 26 26 25 24 23 22 21 20 19 18 16 15 14 13 13 13 14 15 16 18 20 21
23 24 24 26 25 26 25 28 28 27 27 25 25 27 29 28 27 28 29 29 28 27 26 26 25 24 23 23 21 20 18 17 15 14 13 13 13 14 15 17 18 20 21 22
Wind_Direction
4 349 339 322 307 298 287 284 278 279 279 288 294 296 296 297 294 293 292 292 291 290 291 291 291 290 287 285 284 281 279 278 279 283 287 291 294 298 300 301 300 300 299 298
32 41 16 334 317 309 300 294 285 282 281 296 298 299 299 298 297 293 294 292 292 292 291 290 291 292 292 287 284 281 278 277 280 284 288 292 295 297 299 301 301 302 301 300
38 45 64 14 332 313 306 302 289 282 288 297 297 298 298 296 298 295 292 294 291 289 290 291 290 293 294 293 289 282 279 278 279 283 286 290 294 297 298 300 302 302 302 303
41 44 33 74 57 16 323 316 307 297 295 298 296 296 297 294 297 297 293 292 290 288 286 288 290 289 292 293 291 285 281 279 280 283 286 291 295 297 300 302 303 304 305 305
37 45 55 62 49 34 23 338 322 305 301 301 301 296 296 297 300 297 294 292 291 290 286 285 286 286 288 288 287 286 283 281 280 282 285 290 294 297 300 302 304 306 306 306
38 34 41 57 40 32 36 17 15 316 306 303 304 290 288 299 300 297 296 294 293 292 288 283 283 283 285 285 283 281 280 281 282 282 285 289 293 297 301 304 306 307 307 307
28 33 50 51 35 31 28 17 347 273 269 291 297 297 288 296 298 299 298 296 295 293 288 285 282 279 279 281 281 279 278 279 280 282 286 290 294 298 301 303 305 307 308 308
27 27 32 41 25 22 5 347 296 333 277 272 269 271 270 288 297 300 300 298 296 291 288 287 283 277 275 276 280 279 278 276 276 278 284 291 295 298 300 302 305 306 308 309
32 21 21 22 8 6 1 353 346 331 314 271 270 269 261 297 311 302 302 301 299 294 288 287 283 277 274 276 279 278 275 276 274 274 280 287 294 298 299 301 304 305 308 310
9 15 6 4 1 2 354 351 348 345 338 334 277 293 315 317 313 310 308 306 302 297 291 284 282 279 276 278 278 276 274 273 271 272 277 284 290 297 301 302 303 305 308 310
359 357 357 3 0 356 353 351 347 347 344 337 321 315 320 315 327 322 314 307 305 302 296 286 282 279 277 276 276 274 273 270 268 271 275 281 288 293 300 304 307 306 308 312
351 2 359 355 356 356 354 354 350 345 342 339 337 323 328 330 322 318 305 312 305 306 297 288 282 277 276 276 273 270 270 268 266 269 274 280 286 292 301 306 311 311 312 313
357 360 356 353 356 357 356 354 350 346 346 342 331 332 323 325 326 303 300 296 308 299 295 292 288 281 278 275 272 268 266 265 265 268 273 278 283 289 292 305 311 314 314 315
3 356 352 355 352 355 355 354 348 346 344 345 340 333 330 321 320 314 302 305 305 302 298 299 294 287 283 277 270 266 264 263 264 268 272 276 281 288 296 302 306 310 315 318
1 355 352 354 355 354 354 350 347 344 343 340 337 336 329 320 315 314 312 310 310 307 304 300 299 301 301 287 269 262 262 263 265 267 270 274 280 287 295 303 309 312 314 317
354 354 356 354 354 356 357 354 353 349 345 342 339 337 332 325 318 315 315 313 311 306 300 298 295 306 313 308 281 267 263 262 264 265 269 272 279 285 293 302 308 312 315 316
350 350 353 354 356 357 356 355 353 350 346 343 338 336 335 333 325 318 314 312 311 306 298 299 299 313 321 322 291 275 271 265 264 269 272 274 280 282 292 300 304 310 312 317
356 357 359 358 357 355 355 355 355 353 349 346 343 340 337 333 329 320 315 313 312 314 309 300 303 303 306 315 311 288 270 271 273 271 278 278 280 289 292 297 303 307 311 314
359 359 360 359 358 357 356 356 355 354 352 350 347 342 338 336 331 326 320 317 315 312 309 303 307 301 299 296 308 304 290 278 278 279 280 283 286 289 291 295 300 307 309 311
359 1 0 360 359 358 356 357 357 356 356 353 350 346 340 336 332 329 327 320 314 308 309 303 299 298 300 302 303 293 289 286 285 282 282 285 289 290 292 295 298 301 307 309
0 1 0 359 358 358 358 358 357 356 357 356 354 351 348 344 340 332 327 322 314 311 309 303 299 297 301 300 300 292 290 290 288 286 287 288 291 294 297 297 297 298 301 308
1 0 359 359 358 358 359 359 359 359 359 359 358 355 350 345 340 336 335 327 314 311 308 299 295 297 304 303 298 294 291 289 288 288 290 293 293 294 296 298 299 299 303 304
1 1 1 360 359 360 0 0 360 0 0 1 1 360 357 352 348 338 325 323 326 328 317 300 296 307 311 310 306 300 297 295 293 291 290 292 296 298 299 300 300 300 300 305
2 3 2 2 2 1 359 360 0 1 1 3 3 3 358 352 345 345 332 320 317 321 323 327 316 310 307 306 304 301 297 295 294 295 296 298 298 299 301 303 303 304 307 306
5 5 5 3 2 2 2 2 2 2 1 1 3 4 0 359 355 343 329 318 311 313 309 308 308 306 303 303 302 298 296 295 294 295 295 296 299 302 301 303 305 307 309 314
7 6 7 6 6 5 3 3 1 1 2 1 4 5 360 358 357 347 335 323 314 307 305 303 301 301 299 298 296 295 293 292 292 293 294 297 299 300 302 304 306 308 310 315
11 11 11 8 8 6 6 3 1 1 1 3 2 3 2 2 360 351 338 327 318 311 306 304 301 299 298 295 293 292 293 294 293 293 295 297 300 301 303 304 305 308 312 313